User: anonymous   Login
Location: Caltech
(34.1382°N, 118.1253°W)
Time: 19:01:48
(UTC-07:00)
Language:

Iridium 14 - Orbit

View from above orbital plane
View from above orbital plane
View from above satellite
View from above satellite

Ground track
Ground track

The orbit data is extracted from the following two-line orbital elements,

1 25777U 99032A   16180.50442822 -.00000049  00000-0 -24493-4 0  9995
2 25777  86.3947  11.8029 0002305  84.3326 331.2703 14.34215534903984
Epoch (UTC): 28 June 2016 12:06:22
Eccentricity: 0.0002305
inclination: 86.3947°
perigee height: 776 km
apogee height: 779 km
right ascension of ascending node: 11.8029°
argument of perigee: 84.3326°
revolutions per day: 14.34215534
mean anomaly at epoch: 331.2703°
orbit number at epoch: 90398

The dashed part of the orbit path shows where the satellite is in the earth's shadow,  

DLR